Change the Weather History Date:

Thursday, May 30, 2013

  Actual Average Record
Temperature  
Mean Temperature 57 °F 63 °F  
Max Temperature 70 °F 77 °F 98 °F (1986)
Min Temperature 44 °F 49 °F 39 °F (2006)
Degree Days  
Heating Degree Days 8 4  
Month to date heating degree days 167 207  
Since 1 July heating degree days 5275 5824  
Cooling Degree Days 0 1  
Month to date cooling degree days 50 20  
Year to date cooling degree days 50 21  
Growing Degree Days 8 (Base 50)    
Moisture  
Dew Point 38 °F    
Average Humidity 53    
Maximum Humidity 83    
Minimum Humidity 23    
Precipitation  
Precipitation 0.00 in 0.02 in 2.25 in (1980)
Month to date precipitation 0.70 0.58  
Year to date precipitation 2.08 4.00  
Sea Level Pressure  
Sea Level Pressure 30.00 in    
Wind  
Wind Speed 7 mph (SW)    
Max Wind Speed 14 mph    
Max Gust Speed 18 mph    
Visibility 10 miles    
Events      
T = Trace of Precipitation, MM = Missing Value Source: NWS Daily Summary

Daily Weather History Graph

Daily Weather History Graph

Search for Another Location

Airport or City:

Trip Planner

Search our weather history database for the weather conditions in past years. The results will help you decide how hot, cold, wet, or windy it might be!

Date:

Astronomy

May. 30, 2013 Rise Set
Actual Time 5:06 AM PDT 8:43 PM PDT
Civil Twilight 4:27 AM PDT 9:22 PM PDT
Nautical Twilight 3:36 AM PDT 10:14 PM PDT
Astronomical Twilight 2:25 AM PDT 11:25 PM PDT
Moon 12:32 AM PDT (5/30) 11:37 AM PDT (5/30)
Length of Visible Light 16h 54m
Length of Day
15h 37m
Waning Gibbous, 61% of the Moon is Illuminated
May 30
Waning Gibbous
May 31
Last Quarter
Jun 8
New
Jun 16
First Quarter
Jun 23
Full

Hourly Weather History & Observations

Time (PDT) Temp. Windchill Dew Point Humidity Pressure Visibility Wind Dir Wind Speed Gust Speed Precip Events Conditions
12:52 AM 50.0 °F - 41.0 °F 71% 29.89 in 10.0 mi SW 8.1 mph - N/A   Overcast
1:52 AM 48.9 °F - 41.0 °F 74% 29.91 in 10.0 mi WSW 5.8 mph - N/A   Overcast
2:52 AM 50.0 °F - 41.0 °F 71% 29.91 in 10.0 mi WSW 8.1 mph - N/A   Overcast
3:52 AM 48.0 °F - 39.9 °F 74% 29.92 in 10.0 mi WSW 3.5 mph - N/A   Partly Cloudy
4:52 AM 45.0 °F 42.6 °F 39.9 °F 82% 29.94 in 10.0 mi SE 4.6 mph - N/A   Mostly Cloudy
5:52 AM 48.9 °F - 41.0 °F 74% 29.95 in 10.0 mi SSW 4.6 mph - N/A   Overcast
6:52 AM 50.0 °F - 39.9 °F 68% 29.96 in 10.0 mi SW 9.2 mph - N/A   Overcast
7:52 AM 55.0 °F - 43.0 °F 64% 29.98 in 10.0 mi SW 8.1 mph - N/A   Clear
8:52 AM 60.1 °F - 39.9 °F 47% 29.99 in 10.0 mi West 10.4 mph - N/A   Partly Cloudy
9:52 AM 61.0 °F - 39.9 °F 46% 30.00 in 10.0 mi WSW 8.1 mph - N/A   Clear
10:52 AM 62.1 °F - 39.9 °F 44% 30.01 in 10.0 mi South 8.1 mph - N/A   Clear
11:52 AM 64.9 °F - 39.0 °F 39% 30.02 in 10.0 mi SSW 6.9 mph - N/A   Clear
12:52 PM 64.9 °F - 34.0 °F 32% 30.02 in 10.0 mi SW 4.6 mph - N/A   Clear
1:52 PM 68.0 °F - 39.0 °F 35% 30.02 in 10.0 mi South 11.5 mph - N/A   Partly Cloudy
2:52 PM 68.0 °F - 37.0 °F 32% 30.02 in 10.0 mi South 8.1 mph 16.1 mph N/A   Partly Cloudy
3:52 PM 69.1 °F - 34.0 °F 27% 30.02 in 10.0 mi SW 5.8 mph - N/A   Clear
4:52 PM 70.0 °F - 35.1 °F 28% 30.02 in 10.0 mi West 11.5 mph - N/A   Clear
5:52 PM 69.1 °F - 30.9 °F 24% 30.03 in 10.0 mi SW 8.1 mph - N/A   Mostly Cloudy
6:52 PM 68.0 °F - 30.0 °F 24% 30.02 in 10.0 mi WSW 9.2 mph - N/A   Clear
7:52 PM 66.0 °F - 34.0 °F 30% 30.04 in 10.0 mi WSW 9.2 mph - N/A   Clear
8:52 PM 61.0 °F - 39.9 °F 46% 30.06 in 10.0 mi SW 6.9 mph - N/A   Clear
9:52 PM 57.9 °F - 39.9 °F 51% 30.09 in 10.0 mi WSW 5.8 mph - N/A   Clear
10:52 PM 55.9 °F - 37.0 °F 49% 30.11 in 10.0 mi WSW 4.6 mph - N/A   Clear
11:52 PM 55.0 °F - 37.9 °F 53% 30.12 in 10.0 mi SW 4.6 mph - N/A   Clear